Date,TemperatureHighF,TemperatureAvgF,TemperatureLowF,DewpointHighF,DewpointAvgF,DewpointLowF,HumidityHigh,HumidityAvg,HumidityLow,PressureMaxIn,PressureMinIn,WindSpeedMaxMPH,WindSpeedAvgMPH,GustSpeedMaxMPH,PrecipitationSumIn
2013-1-1,35.4,30.5,19.2,9.5,2.2,-9.7,36,29,23,30.12,29.92,10,2,22,0.00
2013-1-2,29.3,20.5,12.2,-1.3,-7.7,-13.8,30,26,25,30.30,30.09,8,1,13,0.00
2013-1-3,12.0,8.8,7.0,-13.9,-16.4,-17.9,27,27,27,30.33,30.27,5,1,6,0.00
2013-1-4,37.4,31.9,20.1,7.1,4.3,-3.3,36,31,24,30.18,29.98,8,2,15,0.04
2013-1-5,40.5,32.4,24.6,9.5,3.2,-0.9,35,29,21,30.48,30.04,6,1,10,0.00
2013-1-6,41.0,33.4,25.3,13.1,8.5,1.6,44,35,28,30.45,30.15,6,1,13,0.00
2013-1-7,38.1,32.6,27.0,13.8,8.0,0.8,44,36,24,30.63,30.18,4,0,8,0.00
2013-1-8,44.1,35.6,28.2,13.0,10.1,7.4,49,35,25,30.60,30.48,8,1,18,0.05
2013-1-9,42.6,36.3,26.2,18.0,11.9,7.5,47,36,28,30.60,30.21,7,1,13,0.00
2013-1-10,45.9,40.0,32.2,11.4,6.1,1.2,30,24,20,30.74,30.21,9,2,17,0.00
2013-1-11,40.8,35.2,27.9,24.3,11.1,3.4,58,37,30,30.74,30.45,5,0,6,0.08
2013-1-12,44.8,41.6,37.8,37.4,32.3,24.3,79,70,58,30.45,30.33,3,0,5,0.00
2013-1-13,52.9,48.7,43.0,45.0,41.5,36.6,82,76,67,30.36,30.18,4,0,8,0.00
2013-1-14,59.5,52.2,42.4,46.9,30.7,7.3,77,49,20,30.48,30.06,6,2,10,0.00
2013-1-15,43.0,39.0,34.9,9.5,7.0,4.4,30,26,23,30.51,30.42,3,0,5,0.00
2013-1-16,35.2,33.7,31.3,24.4,15.4,4.3,68,48,27,30.45,30.04,2,0,4,0.00
2013-1-17,40.6,35.6,30.2,24.2,13.5,-1.2,71,42,25,30.30,30.06,6,2,12,0.20
2013-1-18,30.2,23.5,19.0,0.9,-7.2,-11.7,28,24,22,30.66,30.27,7,1,12,0.00
2013-1-19,46.8,37.1,23.9,11.2,4.2,-6.8,30,25,19,30.60,30.12,8,2,17,0.10
2013-1-20,52.9,41.3,29.1,14.6,8.0,-3.6,33,25,18,30.12,29.74,11,3,17,0.00
2013-1-21,30.4,26.1,21.9,4.2,-4.0,-9.9,42,26,22,30.33,29.98,6,2,10,0.00
2013-1-22,26.1,21.3,13.8,4.5,-3.7,-12.9,45,32,24,30.27,29.95,7,2,14,0.00
2013-1-23,17.6,12.2,7.9,-12.4,-15.0,-19.2,27,25,23,30.33,30.24,8,2,14,0.00
2013-1-24,20.7,11.8,3.9,-10.9,-16.4,-22.3,24,24,22,30.39,30.21,7,2,17,0.00
2013-1-25,25.0,17.1,8.8,-7.7,-12.8,-18.6,28,23,22,30.51,30.27,6,2,11,0.00
2013-1-26,25.0,18.0,12.2,-5.3,-8.7,-13.8,35,28,22,30.42,30.18,6,1,13,0.00
2013-1-27,30.2,21.0,13.5,-2.8,-8.9,-14.2,27,24,21,30.69,30.42,6,2,11,0.00
2013-1-28,32.2,25.9,18.7,14.1,-1.2,-11.7,51,31,22,30.66,30.24,4,1,6,0.00
2013-1-29,34.9,31.2,26.4,22.7,14.9,10.8,62,51,45,30.42,30.21,2,0,4,0.03
2013-1-30,59.9,49.2,34.2,51.8,40.2,22.1,88,72,54,30.39,29.68,7,2,15,0.16
2013-1-31,61.0,46.1,30.4,52.6,20.7,-2.5,77,40,20,29.80,29.18,12,4,21,0.20
2013-2-1,34.3,29.2,22.8,-0.2,-3.5,-9.2,25,23,21,30.27,29.80,8,3,15,0.00
2013-2-2,31.3,25.1,18.3,-2.1,-6.7,-11.9,25,23,22,30.45,30.21,6,2,10,0.00
2013-2-3,28.6,25.9,23.2,6.6,2.6,-5.8,43,36,23,30.27,29.92,4,0,7,0.00
2013-2-4,30.9,24.7,20.5,5.5,-2.3,-8.2,44,30,23,30.12,29.92,10,3,18,0.00
2013-2-5,30.9,25.8,21.2,7.5,-3.6,-8.2,43,27,23,30.24,30.12,6,1,10,0.00
2013-2-6,38.1,30.2,25.5,12.2,4.9,-5.6,48,35,23,30.48,30.09,6,2,12,0.05
2013-2-7,30.2,24.6,17.6,-2.8,-6.3,-10.8,26,24,23,30.71,30.48,5,1,10,0.00
2013-2-8,33.1,30.0,18.9,27.6,15.0,-4.6,91,56,23,30.69,29.80,11,4,19,0.00
2013-2-9,24.8,18.8,12.7,14.7,3.7,-8.7,76,53,35,30.39,29.74,7,2,13,0.00
2013-2-10,35.1,20.9,5.5,6.7,-3.4,-14.5,38,33,25,30.60,30.39,4,1,8,0.00
2013-2-11,40.6,30.8,19.6,35.0,18.2,-2.7,86,61,36,30.54,29.80,4,1,7,0.00
2013-2-12,40.6,36.7,33.4,34.5,17.3,10.3,86,47,31,30.06,29.80,11,3,19,0.00
2013-2-13,41.2,34.1,27.3,13.9,9.7,6.5,45,36,28,30.06,29.92,5,1,8,0.00
2013-2-14,41.4,35.0,29.1,14.4,7.8,4.2,46,32,23,30.21,29.92,5,1,8,0.00
2013-2-15,47.5,38.0,30.7,19.1,13.5,5.0,52,37,27,30.21,30.09,7,1,13,0.00
2013-2-16,38.7,34.7,31.3,20.4,13.4,4.1,57,42,30,30.15,29.92,4,0,7,0.04
2013-2-17,32.0,22.9,17.6,4.1,-2.1,-10.8,47,33,25,29.92,29.56,9,3,20,0.00
2013-2-18,30.6,22.1,14.5,-2.5,-7.8,-12.6,26,25,23,30.36,29.86,9,4,20,0.00
2013-2-19,45.5,34.9,21.7,33.2,8.5,-7.7,76,35,22,30.39,29.80,5,1,6,0.00
2013-2-20,40.3,32.8,26.2,33.3,8.2,-4.8,77,38,23,29.98,29.74,9,4,19,0.00
2013-2-21,33.3,27.5,24.1,-0.4,-2.3,-4.7,32,27,23,30.39,29.98,7,3,15,0.00
2013-2-22,38.8,31.3,22.8,8.1,3.8,-1.0,37,31,24,30.60,30.39,6,1,9,0.00
2013-2-23,38.5,34.9,31.1,23.8,14.3,6.5,64,43,32,30.54,30.15,7,2,10,0.00
2013-2-24,38.5,35.0,32.5,32.2,27.5,22.7,79,74,63,30.15,29.92,4,1,9,0.00
2013-2-25,39.4,35.0,31.1,25.5,19.7,12.7,75,55,35,30.48,30.09,4,0,7,0.00
2013-2-26,42.3,35.9,29.7,25.7,16.2,10.1,68,46,29,30.54,30.39,6,2,10,0.00
2013-2-27,42.8,40.8,37.6,38.7,33.4,15.5,86,76,40,30.39,29.74,14,4,25,0.25
2013-2-28,45.9,40.1,36.5,38.2,28.0,17.8,86,64,35,29.89,29.74,4,1,6,0.00
2013-3-1,41.7,37.9,34.7,24.0,15.6,9.3,58,41,30,29.89,29.74,4,0,6,0.00
2013-3-2,44.6,37.8,31.3,12.2,9.9,7.3,41,31,23,29.92,29.83,5,1,8,0.00
2013-3-3,43.0,36.9,33.3,17.5,11.1,6.6,49,34,28,29.86,29.77,5,1,8,0.00
2013-3-4,41.7,35.1,30.6,12.1,6.9,4.0,41,31,23,29.98,29.77,7,3,17,0.00
2013-3-5,45.3,37.3,30.6,16.7,9.1,3.6,44,31,22,30.30,29.92,4,1,8,0.00
2013-3-6,41.2,37.3,34.9,23.9,17.4,10.4,57,45,29,30.33,30.24,10,3,20,0.05
2013-3-7,36.0,33.4,31.6,23.0,19.4,11.5,70,57,36,30.30,30.18,7,2,11,0.00
2013-3-8,38.1,33.3,30.7,25.3,19.0,9.5,80,58,32,30.39,30.15,7,2,12,0.00
2013-3-9,50.5,34.7,28.9,16.3,13.1,9.5,54,41,26,30.60,30.33,7,2,11,0.00
2013-3-10,40.8,34.1,26.1,21.4,15.2,12.1,59,46,32,30.63,30.51,7,1,8,0.03
2013-3-11,51.6,42.1,34.9,27.9,20.5,16.6,56,43,27,30.54,30.36,6,1,10,0.42
2013-3-12,56.5,49.7,41.5,51.2,39.1,27.5,83,68,45,30.39,29.92,7,2,15,0.20
2013-3-13,54.3,45.6,35.4,48.6,18.1,0.4,81,37,18,30.01,29.89,7,2,15,0.05
2013-3-14,39.2,33.5,23.9,3.1,-0.5,-8.4,25,23,21,30.04,29.89,8,3,14,0.00
2013-3-15,40.8,30.7,20.8,6.5,-2.8,-10.9,30,22,21,30.06,29.80,9,3,15,0.00
2013-3-16,41.4,34.9,27.0,6.6,0.9,-3.5,30,23,21,30.09,29.86,5,1,11,0.00
2013-3-17,39.7,32.0,24.8,3.0,-1.8,-7.1,24,22,21,30.54,30.09,6,1,13,0.00
2013-3-18,36.3,29.0,19.9,8.3,-3.8,-11.4,40,23,21,30.66,30.45,7,2,10,0.00
2013-3-19,36.5,33.3,29.5,30.1,25.2,8.3,80,72,40,30.48,29.80,11,4,19,0.00
2013-3-20,37.9,31.8,26.2,18.1,7.8,1.1,62,38,24,30.04,29.89,9,3,17,0.00
2013-3-21,37.9,31.8,25.7,15.7,6.1,1.1,51,34,24,30.04,29.80,6,1,9,0.11
2013-3-22,40.5,34.2,29.1,15.4,5.1,-0.4,51,30,21,29.98,29.80,7,2,14,0.25
2013-3-23,43.2,35.3,27.9,7.6,3.1,-0.5,33,26,20,30.01,29.80,9,3,17,0.00
2013-3-24,46.4,38.2,30.0,12.4,5.9,0.7,37,26,19,30.04,29.92,6,2,13,0.00
2013-3-25,45.5,38.1,32.4,15.8,12.2,9.9,42,34,27,30.01,29.74,9,1,14,0.00
2013-3-26,49.5,40.8,32.7,18.1,10.1,1.1,51,30,19,30.01,29.74,6,1,10,0.05
2013-3-27,54.5,43.6,31.6,11.9,6.8,0.3,30,22,18,30.06,29.92,6,1,12,0.00
2013-3-28,50.0,43.0,37.4,19.9,14.6,8.7,47,32,21,30.24,30.06,5,0,9,0.00
2013-3-29,56.7,46.1,34.5,18.8,13.9,9.8,41,28,17,30.27,30.15,8,1,12,0.00
2013-3-30,57.7,45.6,36.9,14.0,10.8,5.7,33,25,17,30.30,30.21,8,1,10,0.00
2013-3-31,60.3,46.4,31.3,20.0,10.9,5.5,37,24,17,30.36,29.98,7,2,10,0.00
2013-4-1,62.2,47.5,35.6,34.8,22.4,0.6,69,41,19,30.01,29.68,8,3,14,0.08
2013-4-2,41.2,35.7,30.2,4.2,0.6,-2.9,23,22,21,30.15,30.01,11,4,18,0.00
2013-4-3,46.8,38.2,30.2,7.4,2.2,-2.8,23,21,19,30.39,30.09,11,4,20,0.00
2013-4-4,55.9,42.9,28.9,12.5,4.9,-3.7,23,20,17,30.51,30.24,8,2,11,0.00
2013-4-5,59.2,48.1,38.5,14.4,9.3,3.3,29,21,17,30.27,29.80,6,2,10,0.00
2013-4-6,47.8,39.7,32.9,7.6,3.0,-0.9,23,21,19,30.57,30.09,7,2,11,0.00
2013-4-7,54.3,43.8,29.8,21.7,8.7,-2.2,37,24,18,30.54,30.21,7,2,19,0.00
2013-4-8,63.3,51.9,44.8,30.1,20.4,12.2,52,31,16,30.33,30.15,7,2,13,0.00
2013-4-9,69.6,53.5,45.7,41.5,25.0,15.5,64,36,17,30.30,30.04,8,2,12,0.08
2013-4-10,57.7,49.7,45.9,37.3,27.9,20.4,68,44,27,30.24,30.09,7,2,11,0.16
2013-4-11,52.3,47.1,43.5,39.6,28.3,12.8,75,51,28,30.36,30.04,7,1,11,0.05
2013-4-12,43.5,39.3,36.7,33.0,22.9,10.7,77,54,29,30.39,29.98,13,3,21,0.36
2013-4-13,53.2,42.3,37.0,33.0,26.5,15.2,77,56,26,30.15,29.95,6,2,8,0.00
2013-4-14,54.7,46.9,39.0,29.4,16.3,4.8,58,32,18,30.42,30.09,8,2,12,0.00
2013-4-15,54.1,44.9,35.1,21.4,14.0,8.7,40,29,18,30.60,30.39,9,2,15,0.00
2013-4-16,64.8,53.6,40.3,31.5,21.1,14.3,47,29,18,30.63,30.27,7,2,11,0.00
2013-4-17,66.4,59.8,53.2,33.3,21.5,14.3,40,24,15,30.39,30.27,6,2,13,0.00
2013-4-18,62.4,54.4,41.7,19.6,13.8,11.0,29,20,16,30.63,30.36,10,4,14,0.00
2013-4-19,74.7,64.0,53.4,51.8,38.9,19.6,68,42,21,30.36,29.86,8,2,13,0.00
2013-4-20,66.4,55.7,46.0,55.6,28.4,6.4,77,41,17,30.42,29.80,8,2,14,0.45
2013-4-21,53.6,44.3,36.0,11.0,6.6,0.9,29,21,18,30.89,30.42,9,2,12,0.00
2013-4-22,50.0,43.0,34.5,18.7,11.5,7.6,41,28,19,30.95,30.80,11,3,17,0.00
2013-4-23,43.2,41.9,40.3,36.3,26.7,11.3,77,57,30,30.80,30.30,7,2,12,0.05
2013-4-24,66.6,53.7,43.0,40.6,31.2,19.0,78,48,18,30.30,29.98,8,2,13,0.03
2013-4-25,64.6,55.9,46.4,41.5,21.2,9.7,61,28,15,30.48,30.04,7,2,13,0.00
2013-4-26,56.1,49.2,43.0,25.0,15.3,10.5,43,27,17,30.66,30.48,10,3,14,0.00
2013-4-27,61.0,51.6,39.2,30.2,17.7,9.7,54,29,17,30.63,30.51,7,2,12,0.00
2013-4-28,64.0,54.5,41.4,24.3,16.2,10.3,39,23,16,30.57,30.42,9,2,15,0.00
2013-4-29,67.6,58.0,49.8,25.0,18.0,9.8,34,22,15,30.51,30.39,9,2,14,0.00
2013-4-30,66.9,55.2,45.5,19.3,13.8,8.1,28,20,15,30.60,30.45,8,2,13,0.00
2013-5-1,63.5,53.1,40.6,24.4,17.7,13.4,39,26,16,30.69,30.57,8,2,13,0.00
2013-5-2,73.9,55.6,45.3,29.4,21.2,15.4,43,28,13,30.71,30.57,9,2,14,0.00
2013-5-3,59.2,50.7,43.0,25.5,20.6,17.3,43,31,22,30.71,30.57,7,2,12,0.00
2013-5-4,56.7,48.3,41.0,29.1,21.1,17.4,51,35,25,30.60,30.51,9,2,13,0.00
2013-5-5,57.0,48.1,38.8,28.8,20.8,13.5,53,36,20,30.54,30.45,8,2,12,0.00
2013-5-6,58.5,49.3,40.1,36.3,28.7,22.6,60,46,26,30.51,30.36,8,2,12,0.00
2013-5-7,69.1,60.0,46.0,39.6,32.1,21.1,68,38,17,30.39,30.27,8,2,12,0.00
2013-5-8,67.3,59.9,54.3,52.6,42.6,33.6,85,54,33,30.42,30.24,9,3,13,0.00
2013-5-9,67.6,61.8,56.1,63.1,56.7,45.4,91,84,53,30.27,30.06,6,1,8,0.58
2013-5-10,79.2,66.4,59.5,68.3,50.9,33.5,91,62,27,30.15,30.04,7,2,10,0.00
2013-5-11,71.4,64.4,59.5,51.0,42.5,33.6,65,46,27,30.12,29.86,7,1,13,0.00
2013-5-12,70.3,62.6,52.5,58.6,38.6,10.3,82,48,17,30.01,29.71,7,1,13,0.08
2013-5-13,61.0,52.7,45.3,15.6,11.4,8.1,25,19,16,30.24,29.98,7,2,11,0.00
2013-5-14,48.7,45.9,43.5,10.5,8.0,6.4,25,21,19,30.24,30.18,3,0,5,0.00
2013-5-15,58.1,56.6,44.1,36.3,32.7,10.5,46,40,25,30.24,29.89,4,1,8,0.00
2013-5-16,80.6,66.8,50.7,37.2,25.4,15.9,53,25,12,30.01,29.80,8,2,15,0.00
2013-5-17,68.7,59.8,53.1,22.0,17.4,12.7,29,19,15,30.42,30.01,6,2,10,0.00
2013-5-18,73.4,59.0,48.0,31.4,23.4,16.6,40,26,14,30.51,30.39,8,2,13,0.00
2013-5-19,69.3,56.9,51.1,51.9,32.6,22.5,83,42,20,30.54,30.42,8,2,13,0.11
2013-5-20,79.5,67.4,57.0,60.7,47.8,31.2,90,56,20,30.42,30.09,6,1,8,0.04
2013-5-21,72.9,61.2,52.9,56.0,45.9,30.0,88,61,26,30.21,30.04,6,1,10,0.21
2013-5-22,71.1,60.3,55.2,63.7,50.8,37.8,91,73,45,30.24,30.06,7,2,11,0.08
2013-5-23,74.3,65.9,55.9,64.6,53.4,42.5,88,67,34,30.12,29.98,7,1,12,0.05
2013-5-24,77.9,68.9,58.5,71.9,63.0,48.1,88,82,53,30.01,29.83,4,1,8,0.67
2013-5-25,71.2,56.7,45.7,62.0,50.9,37.4,89,81,53,30.01,29.86,6,2,12,0.39
2013-5-26,58.5,50.1,42.3,41.3,26.8,13.5,81,46,19,30.30,29.86,7,3,14,0.05
2013-5-27,71.1,57.9,43.3,27.0,20.5,13.8,50,26,14,30.36,30.24,6,2,11,0.00
2013-5-28,67.5,58.3,47.5,33.1,24.3,15.5,45,29,15,30.45,30.36,8,2,10,0.00
2013-5-29,68.9,63.7,59.0,61.0,52.3,30.4,91,68,32,30.39,30.15,6,1,8,0.75
2013-5-30,86.2,77.2,64.4,75.3,52.6,32.4,91,52,16,30.27,30.18,6,2,10,0.00
2013-5-31,91.8,79.6,66.0,54.9,39.9,28.0,66,30,12,30.27,30.09,5,1,11,0.00
2013-6-1,91.6,80.5,69.1,41.5,34.3,28.0,35,20,12,30.15,30.04,7,2,12,0.00
2013-6-2,89.8,79.4,70.3,47.1,37.2,28.3,42,24,12,30.06,29.92,9,3,17,0.00
2013-6-3,75.7,70.1,64.4,61.3,46.0,20.0,78,45,17,30.04,29.92,4,1,8,0.30
2013-6-4,71.4,63.0,52.2,23.6,20.2,15.9,29,20,14,30.30,30.01,7,2,12,0.00
2013-6-5,73.0,63.1,52.7,29.0,22.4,19.3,37,22,14,30.39,30.27,9,2,11,0.00
2013-6-6,71.1,64.1,57.4,33.1,24.2,18.5,37,22,17,30.39,30.27,8,2,12,0.00
2013-6-7,62.1,58.1,55.9,58.6,48.0,32.9,89,71,37,30.33,30.01,6,2,8,2.45
2013-6-8,79.7,68.8,62.1,69.9,54.0,34.5,89,65,27,30.18,29.77,6,2,11,0.53
2013-6-9,78.8,68.1,57.9,50.3,35.1,23.3,71,35,15,30.36,30.15,6,1,13,0.00
2013-6-10,67.1,62.4,59.5,56.3,40.2,30.3,85,47,26,30.39,30.21,8,2,11,0.58
2013-6-11,73.2,66.7,59.0,66.7,61.3,52.7,90,83,67,30.21,29.74,8,1,13,1.11
2013-6-12,67.8,67.1,65.7,63.8,63.1,62.0,88,87,86,29.77,29.71,0,0,1,0.06
2013-6-14,63.3,61.8,61.0,36.2,34.9,33.8,39,36,35,29.95,29.86,1,0,1,1.00
2013-6-15,77.2,66.5,56.5,39.9,27.7,16.0,53,26,13,30.12,29.92,5,1,8,0.00
2013-6-16,74.5,66.8,57.7,39.2,26.7,22.3,35,23,16,30.15,29.89,6,1,10,0.00
2013-6-17,84.0,70.0,60.8,63.3,42.6,24.8,86,44,14,30.09,29.92,6,1,11,0.66
2013-6-18,72.1,65.7,61.0,62.6,54.1,32.1,86,70,25,30.12,30.04,7,1,10,0.45
2013-6-19,72.3,65.1,60.6,59.0,37.6,18.4,83,44,16,30.36,30.06,7,1,10,0.05
2013-6-20,73.0,65.5,54.9,35.2,28.8,23.0,46,27,16,30.45,30.33,7,2,9,0.00
2013-6-21,81.5,71.1,61.2,38.2,31.6,26.2,34,24,14,30.45,30.33,5,2,8,0.00
2013-6-22,82.9,73.4,64.9,35.4,30.0,24.4,29,21,14,30.42,30.27,8,2,10,0.00
2013-6-23,88.2,77.0,67.3,43.1,34.3,26.2,31,22,13,30.36,30.15,7,2,13,0.00
2013-6-24,91.6,79.8,71.4,66.5,45.3,31.1,79,35,12,30.18,30.04,6,2,11,0.28
2013-6-25,89.1,79.1,70.2,66.0,48.8,30.4,79,43,13,30.09,29.89,7,2,10,0.00
2013-6-26,83.8,74.2,68.7,61.8,52.2,36.5,74,49,20,30.04,29.92,6,1,7,0.17
2013-6-27,69.6,66.7,64.2,61.4,56.8,47.3,81,71,46,30.06,29.95,6,1,8,0.05
2013-6-28,91.6,76.3,64.9,84.0,63.8,44.7,89,69,30,29.95,29.62,9,2,13,0.39
2013-6-29,82.6,75.6,71.2,64.0,49.7,35.6,73,44,20,29.89,29.68,6,2,10,0.00
2013-6-30,85.5,76.9,70.9,56.6,46.9,37.6,58,37,19,30.12,29.86,6,1,12,0.00
2013-7-1,79.2,74.9,72.1,69.6,63.8,51.1,78,69,45,30.24,30.09,6,1,10,0.08
2013-7-2,81.3,73.1,63.9,65.8,54.8,41.4,73,54,29,30.36,30.21,6,1,8,0.05
2013-7-3,86.7,75.8,63.3,62.9,47.5,38.8,71,41,19,30.36,30.27,6,2,12,0.00
2013-7-4,91.8,82.3,73.9,61.7,47.9,35.5,63,34,14,30.39,30.24,6,2,10,0.07
2013-7-5,91.9,85.0,76.6,54.5,44.4,34.5,45,26,14,30.33,30.18,5,2,9,0.00
2013-7-6,90.9,83.1,76.5,54.2,42.8,29.8,44,26,13,30.24,30.15,5,1,11,0.05
2013-7-7,90.5,79.3,71.1,56.4,42.1,32.3,47,28,17,30.21,30.06,5,1,7,0.17
2013-7-8,83.5,75.9,68.5,63.0,49.9,40.8,64,41,27,30.27,30.09,8,2,13,0.00
2013-7-9,72.5,68.9,66.7,55.5,49.4,45.6,66,50,39,30.27,30.21,6,1,7,0.00
2013-7-10,84.6,74.5,67.1,71.8,55.8,42.1,82,55,23,30.24,29.95,7,2,13,0.00
2013-7-11,79.3,76.0,72.7,65.5,57.7,46.6,72,54,35,30.06,29.92,4,1,8,0.08
2013-7-12,76.6,71.2,67.3,57.3,37.3,27.0,61,31,18,30.36,30.06,5,2,8,0.00
2013-7-13,75.6,69.9,66.9,56.4,47.1,41.2,64,45,33,30.48,30.36,6,2,8,0.00
2013-7-14,89.8,78.1,68.9,68.3,52.3,34.5,78,47,15,30.45,30.33,8,1,13,0.05
2013-7-15,90.0,79.3,72.7,62.9,47.4,32.1,69,37,16,30.36,30.24,6,1,8,0.00
2013-7-16,91.6,78.6,72.1,57.2,45.3,30.4,59,34,12,30.36,30.27,6,1,10,0.12
2013-7-17,90.9,81.1,71.4,64.6,48.5,31.1,72,38,12,30.36,30.15,6,2,8,0.08
2013-7-18,89.6,79.9,75.6,54.6,45.8,34.0,44,32,16,30.18,30.09,9,2,13,0.00
2013-7-19,96.3,85.9,75.2,58.9,45.2,30.9,53,29,11,30.12,29.86,8,2,17,0.00
2013-7-20,92.8,84.9,77.5,54.9,42.9,31.2,41,24,12,30.01,29.80,7,2,12,0.00
2013-7-21,77.4,74.0,70.5,52.2,36.8,25.1,52,27,15,30.15,29.98,8,2,11,0.05
2013-7-22,79.5,72.4,68.2,56.6,48.2,34.3,61,44,22,30.15,30.04,8,2,13,0.00
2013-7-23,86.7,77.2,69.8,79.6,69.8,53.1,84,78,55,30.06,29.68,5,0,12,0.57
2013-7-24,88.2,81.1,69.1,81.1,55.2,26.3,84,49,16,30.12,29.71,6,1,10,0.00
2013-7-25,69.1,63.4,61.0,54.0,34.0,19.7,74,37,18,30.27,30.09,4,1,8,0.21
2013-7-26,80.4,70.4,62.4,73.5,63.8,53.8,87,80,66,30.24,30.06,4,0,10,0.71
2013-7-27,82.0,73.1,64.6,64.2,46.9,27.6,80,47,14,30.18,30.15,6,1,8,0.00
2013-7-28,78.4,71.2,68.0,60.6,50.6,40.9,71,49,31,30.21,30.12,5,1,6,0.00
2013-7-29,79.7,72.1,67.8,62.9,54.5,35.0,76,56,23,30.18,30.09,8,2,11,0.25
2013-7-30,80.2,73.4,65.7,58.6,36.6,25.2,77,31,15,30.27,30.18,6,1,10,0.00
2013-7-31,79.7,70.6,63.1,42.2,34.9,26.2,44,28,15,30.30,30.21,7,2,10,0.00
2013-8-1,79.5,72.1,65.5,45.7,36.5,28.5,46,28,18,30.21,30.04,8,2,10,0.00
2013-8-2,80.6,72.3,64.8,65.7,41.5,24.4,81,38,14,30.06,29.92,5,1,8,0.39
2013-8-3,77.7,71.8,67.3,42.4,35.8,28.3,40,28,18,30.04,29.92,6,2,10,0.00
2013-8-4,79.7,69.0,61.9,42.4,32.9,24.5,44,28,15,30.06,29.92,4,1,8,0.03
2013-8-5,75.6,67.0,59.5,36.5,24.9,15.8,39,22,13,30.27,30.06,6,1,10,0.00
2013-8-6,76.1,65.4,55.9,35.7,25.4,17.9,36,23,15,30.36,30.24,8,1,10,0.00
2013-8-7,78.3,69.0,59.9,39.6,29.4,21.3,43,25,15,30.36,30.27,8,2,12,0.00
2013-8-8,79.5,72.2,66.4,50.2,40.1,21.0,45,32,17,30.33,30.15,5,1,10,0.00
2013-8-9,73.9,73.3,72.1,65.9,59.9,49.5,76,64,44,30.18,29.83,6,1,11,1.20
2013-8-10,82.4,75.0,65.3,65.9,44.1,23.5,76,41,14,30.18,29.92,6,1,12,0.00
2013-8-11,78.4,69.0,58.5,36.6,29.1,23.0,41,24,15,30.24,30.15,5,1,8,0.00
2013-8-12,81.0,72.2,63.3,40.5,32.0,24.4,42,25,14,30.21,30.09,5,1,7,0.00
2013-8-13,74.1,69.9,66.2,49.5,41.5,32.3,49,36,24,30.12,29.86,6,1,7,0.00
2013-8-14,75.2,68.9,63.5,47.0,30.0,20.1,49,26,15,30.15,29.80,6,2,12,0.05
2013-8-15,76.6,67.4,57.6,30.3,25.4,20.1,35,21,15,30.30,30.15,6,1,9,0.00
2013-8-16,78.3,68.9,58.1,33.0,27.6,22.7,36,22,15,30.39,30.27,5,1,11,0.03
2013-8-17,76.5,68.2,61.3,37.1,30.4,23.0,35,25,16,30.48,30.39,7,1,11,0.17
2013-8-18,78.1,69.6,63.0,40.1,31.7,23.8,43,26,15,30.48,30.27,4,1,6,0.00
2013-8-19,81.3,72.6,62.6,40.2,31.4,24.8,42,23,14,30.27,30.12,5,1,10,0.05
2013-8-20,85.1,75.2,66.9,39.9,32.7,25.2,34,22,13,30.27,30.15,6,0,8,0.08
2013-8-21,87.8,76.8,65.1,41.3,34.2,26.8,39,23,13,30.33,30.21,5,1,9,0.09
2013-8-22,86.2,77.2,69.1,48.9,37.0,28.6,42,25,13,30.24,30.01,6,1,11,0.08
2013-8-23,80.1,72.7,65.8,50.2,32.9,21.9,46,25,15,30.30,30.01,6,1,8,0.00
2013-8-24,76.1,66.8,59.2,26.9,20.6,15.2,25,17,13,30.54,30.30,7,1,10,0.00
2013-8-25,78.8,69.6,57.6,28.3,23.6,16.7,28,18,13,30.57,30.39,7,2,10,0.00
2013-8-26,81.5,72.8,66.2,39.0,31.3,22.3,33,22,14,30.39,30.06,6,1,11,0.03
2013-8-27,78.3,72.7,67.3,52.7,43.0,33.2,53,36,21,30.09,29.98,7,2,10,0.00
2013-8-28,77.4,69.2,63.9,50.8,43.8,33.7,58,42,21,30.15,30.04,8,2,10,0.05
2013-8-29,67.3,65.7,63.1,51.0,44.8,36.9,57,47,37,30.27,30.09,4,0,9,0.00
2013-8-30,82.0,71.7,63.5,45.2,38.2,30.7,43,31,17,30.18,29.98,4,0,8,0.05
2013-8-31,79.0,74.0,70.3,66.3,54.2,44.9,70,51,37,30.01,29.92,0,0,0,0.15
2013-9-1,79.0,73.3,70.9,70.2,59.0,48.5,78,62,44,30.06,29.95,0,0,0,0.22
2013-9-2,79.2,75.3,73.4,68.6,60.0,46.0,79,61,34,30.06,29.89,0,0,0,0.00
2013-9-3,80.2,74.7,67.8,63.1,47.2,-14.7,71,41,21,30.01,29.86,0,0,0,0.00
2013-9-4,80.4,71.4,62.6,37.9,29.7,22.7,37,22,15,30.12,29.98,0,0,0,0.00
2013-9-5,69.1,64.7,55.4,45.7,32.2,25.8,48,30,22,30.33,30.04,0,0,0,0.03
2013-9-6,69.6,60.4,49.6,30.2,20.6,14.3,38,23,15,30.42,30.27,0,0,0,0.05
2013-9-7,78.8,66.6,54.5,27.2,21.9,15.3,26,19,12,30.33,30.06,0,0,0,0.00
2013-9-8,75.4,66.8,55.2,36.7,26.3,11.3,37,23,13,30.30,29.92,0,0,0,0.00
2013-9-9,70.0,60.6,49.1,23.8,17.8,11.4,28,19,14,30.45,30.27,0,0,0,0.00
2013-9-10,73.2,67.3,59.9,56.0,40.1,23.2,59,38,24,30.36,30.21,0,0,0,0.03
2013-9-11,92.8,80.5,70.0,65.1,47.3,30.2,77,39,12,30.24,30.09,0,0,0,0.14
2013-9-12,87.4,78.3,68.2,62.5,42.8,32.8,81,31,16,30.15,29.86,0,0,0,1.24
2013-9-13,83.5,73.2,61.7,74.7,58.2,34.5,84,62,34,29.95,29.74,0,0,0,0.08
2013-9-14,68.4,63.3,59.5,35.2,30.9,24.4,37,30,22,30.12,29.92,0,0,0,0.00
2013-9-15,71.4,62.3,52.0,35.7,25.5,15.8,47,27,14,30.33,30.21,0,0,0,0.00
2013-9-16,67.6,60.6,52.5,32.1,24.1,10.4,34,25,18,30.42,30.18,0,0,0,0.00
2013-9-17,63.5,54.3,44.6,19.1,14.5,8.4,28,21,16,30.63,30.42,0,0,0,0.00
2013-9-18,72.3,59.9,45.5,27.1,20.4,14.9,40,23,14,30.54,30.33,0,0,0,0.00
2013-9-19,72.9,62.3,52.0,31.9,25.0,19.8,37,25,16,30.36,30.21,0,0,0,0.00
2013-9-20,73.8,63.2,52.5,36.9,31.9,27.2,46,32,19,30.27,30.18,0,0,0,0.05
2013-9-21,75.2,67.1,57.0,43.2,36.1,25.2,51,34,16,30.24,29.92,0,0,0,0.00
2013-9-22,70.9,65.6,56.3,55.9,37.5,19.3,73,39,17,30.01,29.80,1,0,6,0.47
2013-9-23,64.0,56.4,49.6,20.9,16.1,10.4,28,21,16,30.18,30.01,0,0,0,0.00
2013-9-24,66.6,55.6,46.4,21.0,16.6,11.3,31,22,15,30.18,30.01,0,0,0,0.00
2013-9-25,65.1,56.1,48.2,29.9,23.1,17.0,39,29,18,30.18,30.06,0,0,2,0.00
2013-9-26,65.7,58.9,54.7,30.7,24.6,18.7,38,27,18,30.33,30.15,7,1,9,0.00
2013-9-27,66.7,59.8,53.2,31.2,27.2,19.1,39,30,17,30.45,30.30,4,0,6,0.12
2013-9-28,71.2,59.8,52.0,36.0,31.5,23.9,48,36,17,30.51,30.42,6,1,9,0.08
2013-9-29,63.9,55.5,49.3,43.3,30.8,25.3,62,40,24,30.48,30.30,6,1,9,0.08
2013-9-30,64.6,56.2,50.5,41.7,32.5,25.8,63,42,23,30.33,30.15,7,1,10,0.05
2013-10-1,74.1,61.2,50.0,37.8,29.1,20.1,52,33,16,30.18,30.04,4,0,6,0.07
2013-10-2,78.6,67.2,55.9,38.5,31.2,23.5,47,28,15,30.12,29.98,6,1,11,0.13
2013-10-3,76.3,65.6,57.4,33.5,26.7,18.5,39,25,13,30.27,30.12,3,0,7,0.08
2013-10-4,64.8,60.4,55.0,42.5,33.9,25.1,54,38,26,30.27,30.21,3,0,4,0.04
2013-10-5,67.6,62.3,59.2,48.1,39.0,27.9,65,44,24,30.33,30.21,5,0,7,0.00
2013-10-6,61.5,58.5,56.7,56.0,47.5,35.2,82,68,38,30.42,30.27,5,1,8,0.28
2013-10-7,81.0,70.0,61.5,74.4,55.6,35.5,86,64,32,30.33,29.98,7,1,14,0.03
2013-10-8,66.0,59.3,50.5,36.0,21.7,11.9,38,24,15,30.57,30.06,4,0,10,0.00
2013-10-9,61.7,53.0,46.2,26.7,20.2,15.6,40,28,19,30.66,30.57,6,1,10,0.00
2013-10-10,61.7,53.5,45.9,35.1,29.6,23.3,50,40,26,30.57,30.36,5,0,6,0.00
2013-10-11,68.2,58.1,51.6,37.0,28.9,16.8,55,36,15,30.36,30.27,5,0,6,0.00
2013-10-12,60.6,56.2,51.6,42.4,34.4,29.1,55,44,35,30.60,30.33,6,0,8,0.00
2013-10-13,62.6,55.0,46.8,35.0,28.0,22.0,44,36,24,30.63,30.54,7,1,10,0.00
2013-10-14,62.2,51.6,41.7,32.6,26.0,19.0,51,38,19,30.60,30.45,6,1,9,0.00
2013-10-15,64.4,57.3,50.4,37.7,31.6,26.2,50,38,24,30.48,30.36,6,1,8,0.00
2013-10-16,62.1,56.3,51.1,42.4,36.5,32.8,60,48,36,30.36,30.09,2,0,4,0.00
2013-10-17,70.7,62.4,55.6,50.3,39.7,-12.7,71,46,23,30.12,29.92,6,0,10,0.00
2013-10-18,67.1,62.2,54.1,53.6,31.8,15.5,71,37,15,30.09,29.80,8,1,15,0.05
2013-10-19,66.6,57.3,47.1,22.8,17.2,13.6,31,21,15,30.18,29.92,6,1,9,0.00
2013-10-20,62.8,56.0,47.3,45.5,22.7,8.2,73,32,16,30.24,29.86,7,1,16,0.00
2013-10-21,66.4,54.3,42.8,20.3,15.5,9.0,31,22,15,30.33,30.21,5,1,9,0.00
2013-10-22,67.3,57.8,49.6,32.5,21.6,12.7,46,25,17,30.21,29.89,6,1,9,0.00
2013-10-23,53.6,49.1,42.3,15.7,10.9,8.1,30,21,18,30.01,29.77,4,0,5,0.00
2013-10-24,54.7,48.1,43.0,12.0,9.0,5.1,23,20,18,30.09,29.80,7,2,13,0.00
2013-10-25,52.0,44.2,36.7,11.9,6.7,1.2,30,21,18,30.39,30.06,5,1,11,0.00
2013-10-26,56.8,45.5,34.7,14.3,9.2,1.1,37,23,17,30.39,30.06,7,1,12,0.00
2013-10-27,54.7,48.9,41.9,22.0,12.6,4.5,39,24,18,30.27,30.01,4,1,11,0.03
2013-10-28,58.3,47.1,36.1,13.7,9.7,3.6,32,22,17,30.54,30.27,7,1,12,0.00
2013-10-29,49.6,39.9,33.6,12.2,4.9,-0.9,37,23,19,30.63,30.54,6,0,8,0.00
2013-10-30,50.2,41.7,36.0,24.9,19.7,11.6,50,41,35,30.57,30.39,0,0,0,0.06
2013-10-31,61.3,49.5,36.7,49.8,32.6,19.8,67,52,40,30.45,30.01,4,0,11,0.03
2013-11-1,69.4,63.5,59.9,54.5,42.4,32.3,74,48,32,30.01,29.68,6,1,15,0.03
2013-11-2,65.7,57.3,49.1,32.9,24.1,14.3,46,29,15,29.95,29.77,0,0,1,0.00
2013-11-3,52.9,43.9,34.0,28.0,15.3,-0.7,47,32,21,30.60,29.92,0,0,1,0.05
2013-11-4,43.7,35.4,30.0,5.5,0.8,-2.9,28,23,20,30.89,30.60,2,0,6,0.00
2013-11-5,49.1,39.8,30.0,12.9,6.3,0.9,30,25,19,30.89,30.71,4,0,9,0.00
2013-11-6,60.4,51.3,42.1,29.4,17.3,9.6,38,26,17,30.71,30.24,4,0,8,0.00
2013-11-7,65.7,54.6,41.5,43.4,33.2,17.6,56,45,25,30.27,29.86,6,0,9,0.20
2013-11-8,48.2,41.0,34.7,18.1,8.7,1.1,40,27,19,30.30,30.04,6,0,12,0.00
2013-11-9,47.1,40.9,34.2,7.4,3.7,-0.6,22,21,19,30.42,30.24,3,0,10,0.05
2013-11-10,55.2,46.5,41.2,25.4,14.1,4.5,44,28,20,30.27,29.92,4,0,9,0.03
2013-11-11,52.3,45.9,39.6,10.7,7.4,2.9,26,20,18,30.30,30.06,4,1,9,0.00
2013-11-12,48.6,37.2,29.3,20.9,6.7,-3.5,44,28,19,30.39,30.09,4,0,8,0.10
2013-11-13,36.3,28.6,25.9,-1.1,-3.7,-5.4,26,23,23,30.51,30.39,4,0,7,0.00
2013-11-14,49.6,42.1,32.7,9.1,4.6,-0.9,23,21,19,30.33,30.21,6,1,10,0.00
2013-11-15,59.9,47.0,34.3,15.0,7.2,-0.5,22,19,17,30.42,30.27,5,0,10,0.00
2013-11-16,58.1,46.3,39.2,13.4,7.7,4.2,29,20,17,30.54,30.39,5,0,8,0.00
2013-11-17,54.5,46.4,35.1,46.4,24.0,7.9,74,43,28,30.54,30.06,4,1,7,0.00
2013-11-18,65.5,58.8,48.7,59.0,30.5,8.4,82,42,16,30.06,29.74,4,0,13,0.08
2013-11-19,48.7,40.9,32.5,8.4,3.8,-1.0,23,21,19,30.48,29.86,6,1,15,0.00
2013-11-20,42.4,32.1,28.2,5.2,-1.7,-6.6,23,23,20,30.83,30.48,1,0,7,0.00
2013-11-21,45.1,36.1,26.6,6.5,0.8,-7.2,24,22,20,30.86,30.57,1,0,5,0.00
2013-11-22,46.4,44.1,40.8,35.7,22.9,3.9,67,45,21,30.60,30.04,0,0,0,0.25
2013-11-23,47.5,41.0,30.9,36.7,11.1,-2.2,66,31,20,30.12,29.98,0,0,0,0.00
2013-11-24,30.9,25.8,21.4,-2.2,-7.0,-10.3,24,22,20,30.36,29.98,3,0,17,0.00
2013-11-25,33.6,26.3,18.3,-0.2,-6.7,-11.9,23,22,20,30.57,30.36,4,0,9,0.00
2013-11-26,44.1,36.9,31.8,29.8,3.9,-1.5,57,25,21,30.54,30.27,3,0,8,0.09
2013-11-27,67.8,55.1,39.2,61.4,47.9,23.1,86,77,52,30.27,29.42,4,0,11,1.53
2013-11-28,39.2,32.1,25.9,23.5,2.1,-6.6,53,28,20,30.63,29.65,0,0,0,0.00
2013-11-29,33.8,27.8,25.0,-0.2,-4.8,-7.8,24,23,20,30.98,30.63,0,0,0,0.00
2013-11-30,48.0,29.6,25.9,6.9,-3.7,-7.8,28,23,19,31.01,30.63,0,0,0,0.00
2013-12-1,42.6,38.1,33.8,27.3,17.9,3.4,66,45,27,30.66,30.21,0,0,0,0.16
2013-12-2,41.7,38.9,37.6,32.2,28.7,26.4,72,67,60,30.21,30.12,0,0,0,0.04
2013-12-3,47.3,39.1,33.3,28.9,22.3,13.5,71,53,28,30.15,30.04,0,0,0,0.00
2013-12-4,43.7,35.8,30.2,17.0,11.6,6.1,52,38,23,30.42,30.15,0,0,0,0.00
2013-12-5,53.6,43.3,31.8,45.5,25.4,11.4,75,49,41,30.45,30.12,0,0,0,0.00
2013-12-6,56.7,48.6,34.3,49.7,32.6,16.4,79,56,30,30.36,30.06,0,0,0,0.21
2013-12-7,39.9,34.2,27.1,25.2,13.6,0.5,66,44,25,30.66,30.27,0,0,0,0.20
2013-12-8,32.4,28.9,23.4,3.0,-0.7,-3.9,35,27,23,30.80,30.63,0,0,0,0.00
2013-12-9,41.0,34.6,27.0,33.9,21.2,-3.7,76,60,23,30.71,30.06,0,0,0,0.42
2013-12-10,35.8,32.5,25.3,27.5,19.4,-0.5,74,59,31,30.21,29.98,0,0,0,0.00
2013-12-11,32.2,26.5,23.2,2.5,-0.2,-2.8,36,31,23,30.42,30.21,0,0,0,0.00
2013-12-12,26.1,22.2,18.1,-0.3,-6.7,-12.0,34,26,21,30.48,30.27,0,0,0,0.00
2013-12-13,29.5,22.3,16.5,-3.3,-7.7,-12.0,27,25,23,30.60,30.15,0,0,0,0.00
2013-12-14,29.7,18.5,11.8,21.8,-7.1,-16.1,72,31,22,30.80,30.36,0,0,0,0.00
2013-12-15,36.3,29.8,25.3,30.1,17.1,3.6,81,60,38,30.36,29.62,0,0,0,0.00
2013-12-16,28.2,24.2,17.8,6.8,-2.7,-10.8,42,30,23,30.42,29.95,0,0,0,0.00
2013-12-17,21.9,15.9,7.3,3.2,-8.0,-17.6,45,32,25,30.48,30.15,0,0,0,0.00
2013-12-18,34.3,25.8,18.3,6.5,1.8,-2.2,44,35,25,30.30,30.04,0,0,0,0.00
2013-12-19,39.7,32.8,25.2,7.1,4.3,0.8,36,30,23,30.33,30.15,0,0,0,0.00
2013-12-20,45.3,39.3,32.2,30.6,18.0,6.3,58,43,30,30.33,30.09,0,0,0,0.00
2013-12-21,53.1,46.7,40.8,32.1,23.7,12.9,52,40,30,30.18,30.06,0,0,0,0.08
2013-12-22,50.5,39.7,35.8,38.0,30.0,26.3,79,68,52,30.24,30.04,0,0,0,0.00
2013-12-23,38.1,35.5,33.6,32.0,28.6,26.2,79,76,73,30.30,30.18,0,0,0,0.62
2013-12-24,38.1,33.1,27.0,31.6,10.5,-5.3,77,41,23,30.42,30.21,0,0,0,0.00
2013-12-25,27.0,20.5,15.1,-4.7,-9.8,-13.7,26,24,22,30.74,30.39,0,0,0,0.00
2013-12-26,34.9,27.3,18.5,14.6,4.7,-10.2,48,38,25,30.71,30.27,0,0,0,0.05
2013-12-27,33.8,27.7,23.5,8.0,4.1,1.0,47,37,25,30.51,30.39,0,0,0,0.00
2013-12-28,44.6,36.8,27.1,9.2,5.6,1.7,35,27,20,30.36,30.18,0,0,0,0.00
2013-12-29,42.4,37.8,32.7,31.3,15.2,5.2,74,42,26,30.24,29.62,0,0,0,1.28
2013-12-30,41.5,33.6,19.8,28.9,11.7,-9.3,75,45,21,30.39,29.71,0,0,0,0.00
2013-12-31,25.3,20.3,14.9,-5.1,-9.6,-13.8,27,24,21,30.39,30.21,0,0,0,0.00
2014-1-1,27.3,22.2,17.8,-4.7,-7.7,-10.8,25,25,23,30.63,30.39,0,0,0,0.00
2014-1-2,22.5,14.0,1.9,-2.4,-7.8,-16.6,38,35,25,30.57,30.04,0,0,0,0.00